Location: Newark
(40.9833°N, 0.0333°W)
Time: 01:25:28
(UTC+00:00)

Altair - Pass Details

Date: 31 October 2020
Orbit: 1502 x 1682 km, 47.2° (Epoch: 02 December)

Event Time Altitude Azimuth Distance (km) Brightness Sun altitude
Rises 08:46:03 0° 292° (WNW) 4,712 9.5 21.1°
Reaches altitude 10° 08:49:06 10° 294° (WNW) 3,749 9.1 21.5°
Maximum altitude 08:58:39 74° 20° (NNE) 1,660 8.0 22.8°
Drops below altitude 10° 09:08:36 10° 105° (ESE) 3,885 10.7 24.1°
Sets 09:11:48 0° 107° (ESE) 4,890 11.0 24.5°
